User: anonymous   Login
Location: Caltech
(34.1382°N, 118.1253°W)
Time: 18:04:15
(UTC-07:00)
Language:

CZ-2C R/B - Orbit

View from above orbital plane
View from above orbital plane
View from above satellite
View from above satellite

Ground track
Ground track

The orbit data is extracted from the following two-line orbital elements,

1 28480U 04046B   15211.41025918  .00000020  00000-0  22540-4 0  9995
2 28480 098.1463 342.2816 0143509 095.0134 315.1750 14.25520065556249
Epoch (UTC): 30 July 2015 09:50:46
Eccentricity: 0.0143509
inclination: 98.1463°
perigee height: 703 km
apogee height: 910 km
right ascension of ascending node: 342.2816°
argument of perigee: 95.0134°
revolutions per day: 14.25520065
mean anomaly at epoch: 315.1750°
orbit number at epoch: 55624

The dashed part of the orbit path shows where the satellite is in the earth's shadow,  

DLR